Time,TemperatureF,DewpointF,PressureIn,WindDirection,WindDirectionDegrees,WindSpeedMPH,WindSpeedGustMPH,Humidity,HourlyPrecipIn,Conditions,Clouds,dailyrainin,SoftwareType,DateUTC
2013-04-05 00:24:00,37.4,35.0,30.25,ESE,119,0.0,0.0,91,0.00,,,0.00,weatherlink.com 1.10,2013-04-05 06:24:00,
2013-04-05 00:54:00,37.5,35.0,30.24,ESE,120,0.0,0.0,92,0.00,,,0.00,weatherlink.com 1.10,2013-04-05 06:54:00,
2013-04-05 01:09:00,36.8,35.0,30.24,ESE,119,0.0,0.0,91,0.00,,,0.00,weatherlink.com 1.10,2013-04-05 07:09:00,
2013-04-05 01:24:00,36.3,34.0,30.25,SE,139,0.0,4.0,91,0.00,,,0.00,weatherlink.com 1.10,2013-04-05 07:24:00,
2013-04-05 01:39:00,35.6,34.0,30.24,SE,139,0.0,1.0,92,0.00,,,0.00,weatherlink.com 1.10,2013-04-05 07:39:00,
2013-04-05 01:54:00,35.7,34.0,30.23,SE,139,0.0,0.0,93,0.00,,,0.00,weatherlink.com 1.10,2013-04-05 07:54:00,
2013-04-05 02:09:00,36.1,34.0,30.22,SE,139,0.0,0.0,93,0.00,,,0.00,weatherlink.com 1.10,2013-04-05 08:09:00,
2013-04-05 02:39:00,35.1,33.0,30.24,SE,140,0.0,2.0,92,0.00,,,0.00,weatherlink.com 1.10,2013-04-05 08:39:00,
2013-04-05 02:55:00,34.2,32.0,30.24,SSE,156,0.0,4.0,92,0.00,,,0.00,weatherlink.com 1.10,2013-04-05 08:55:00,
2013-04-05 03:09:00,34.1,32.0,30.23,SSE,156,0.0,0.0,93,0.00,,,0.00,weatherlink.com 1.10,2013-04-05 09:09:00,
2013-04-05 03:39:00,33.4,31.0,30.24,SSE,156,0.0,0.0,92,0.00,,,0.00,weatherlink.com 1.10,2013-04-05 09:39:00,
2013-04-05 03:54:00,33.1,31.0,30.25,SSE,156,0.0,1.0,93,0.00,,,0.00,weatherlink.com 1.10,2013-04-05 09:54:00,
2013-04-05 04:24:00,33.4,32.0,30.24,SSE,156,0.0,0.0,94,0.00,,,0.00,weatherlink.com 1.10,2013-04-05 10:24:00,
2013-04-05 04:39:00,33.5,32.0,30.24,SSE,156,0.0,0.0,94,0.00,,,0.00,weatherlink.com 1.10,2013-04-05 10:39:00,
2013-04-05 04:54:00,33.5,32.0,30.24,SSE,155,0.0,0.0,94,0.00,,,0.00,weatherlink.com 1.10,2013-04-05 10:54:00,
2013-04-05 05:09:00,33.6,32.0,30.24,SSE,156,1.0,1.0,94,0.00,,,0.00,weatherlink.com 1.10,2013-04-05 11:09:00,
2013-04-05 05:24:00,32.9,31.0,30.24,SSE,156,0.0,1.0,93,0.00,,,0.00,weatherlink.com 1.10,2013-04-05 11:24:00,
2013-04-05 05:39:00,32.6,31.0,30.24,SSE,156,0.0,0.0,93,0.00,,,0.00,weatherlink.com 1.10,2013-04-05 11:39:00,
2013-04-05 05:54:00,32.6,31.0,30.24,SSE,156,0.0,0.0,94,0.00,,,0.00,weatherlink.com 1.10,2013-04-05 11:54:00,
2013-04-05 06:09:00,32.8,31.0,30.24,SSE,156,0.0,0.0,94,0.00,,,0.00,weatherlink.com 1.10,2013-04-05 12:09:00,
2013-04-05 06:24:00,32.4,31.0,30.25,SSE,155,0.0,0.0,93,0.00,,,0.00,weatherlink.com 1.10,2013-04-05 12:24:00,
2013-04-05 06:39:00,32.2,30.0,30.25,SSE,157,0.0,0.0,93,0.00,,,0.00,weatherlink.com 1.10,2013-04-05 12:39:00,
2013-04-05 06:54:00,33.3,32.0,30.26,SSE,156,0.0,1.0,94,0.00,,,0.00,weatherlink.com 1.10,2013-04-05 12:54:00,
2013-04-05 07:09:00,34.6,33.0,30.25,SSE,156,1.0,1.0,94,0.00,,,0.00,weatherlink.com 1.10,2013-04-05 13:09:00,
2013-04-05 07:24:00,36.2,35.0,30.25,SSE,156,0.0,1.0,94,0.00,,,0.00,weatherlink.com 1.10,2013-04-05 13:24:00,
2013-04-05 07:39:00,38.3,37.0,30.25,SSE,156,0.0,2.0,95,0.00,,,0.00,weatherlink.com 1.10,2013-04-05 13:39:00,
2013-04-05 07:54:00,39.7,38.0,30.25,SSE,156,3.0,4.0,94,0.00,,,0.00,weatherlink.com 1.10,2013-04-05 13:54:00,
2013-04-05 08:09:00,41.2,39.0,30.25,SSE,156,3.0,4.0,93,0.00,,,0.00,weatherlink.com 1.10,2013-04-05 14:09:00,
2013-04-05 08:25:00,43.8,42.0,30.25,South,177,3.0,6.0,92,0.00,,,0.00,weatherlink.com 1.10,2013-04-05 14:25:00,
2013-04-05 08:39:00,46.4,42.0,30.25,SSW,194,5.0,9.0,85,0.00,,,0.00,weatherlink.com 1.10,2013-04-05 14:39:00,
2013-04-05 08:55:00,47.7,43.0,30.25,SSW,207,3.0,8.0,82,0.00,,,0.00,weatherlink.com 1.10,2013-04-05 14:55:00,
2013-04-05 09:10:00,48.9,43.0,30.25,South,181,7.0,8.0,81,0.00,,,0.00,weatherlink.com 1.10,2013-04-05 15:10:00,
2013-04-05 09:25:00,50.4,44.0,30.25,South,178,5.0,8.0,78,0.00,,,0.00,weatherlink.com 1.10,2013-04-05 15:25:00,
2013-04-05 10:10:00,54.7,45.0,30.22,SSE,156,6.0,13.0,69,0.00,,,0.00,weatherlink.com 1.10,2013-04-05 16:10:00,
2013-04-05 10:25:00,55.6,46.0,30.22,SSE,160,3.0,12.0,69,0.00,,,0.00,weatherlink.com 1.10,2013-04-05 16:25:00,
2013-04-05 10:40:00,56.2,45.0,30.22,South,172,5.0,12.0,66,0.00,,,0.00,weatherlink.com 1.10,2013-04-05 16:40:00,
2013-04-05 10:55:00,57.5,46.0,30.21,South,175,6.0,15.0,65,0.00,,,0.00,weatherlink.com 1.10,2013-04-05 16:55:00,
2013-04-05 11:10:00,58.2,46.0,30.20,South,179,5.0,15.0,65,0.00,,,0.00,weatherlink.com 1.10,2013-04-05 17:10:00,
2013-04-05 11:25:00,59.0,46.0,30.19,SE,145,10.0,16.0,63,0.00,,,0.00,weatherlink.com 1.10,2013-04-05 17:25:00,
2013-04-05 11:40:00,59.8,46.0,30.18,South,174,4.0,19.0,61,0.00,,,0.00,weatherlink.com 1.10,2013-04-05 17:40:00,
2013-04-05 11:55:00,59.8,46.0,30.18,South,169,7.0,16.0,60,0.00,,,0.00,weatherlink.com 1.10,2013-04-05 17:55:00,
2013-04-05 12:10:00,60.9,46.0,30.17,SSE,147,13.0,16.0,59,0.00,,,0.00,weatherlink.com 1.10,2013-04-05 18:10:00,
2013-04-05 12:25:00,61.3,46.0,30.16,SSE,164,5.0,15.0,58,0.00,,,0.00,weatherlink.com 1.10,2013-04-05 18:25:00,
2013-04-05 12:40:00,62.1,47.0,30.14,SE,143,12.0,19.0,58,0.00,,,0.00,weatherlink.com 1.10,2013-04-05 18:40:00,
2013-04-05 12:55:00,63.3,47.0,30.13,SE,146,11.0,16.0,56,0.00,,,0.00,weatherlink.com 1.10,2013-04-05 18:55:00,
2013-04-05 13:10:00,63.3,47.0,30.12,SE,131,10.0,14.0,55,0.00,,,0.00,weatherlink.com 1.10,2013-04-05 19:10:00,
2013-04-05 13:26:00,64.2,47.0,30.11,SSE,152,6.0,16.0,53,0.00,,,0.00,weatherlink.com 1.10,2013-04-05 19:26:00,
2013-04-05 13:41:00,64.9,47.0,30.10,SSE,153,12.0,13.0,53,0.00,,,0.00,weatherlink.com 1.10,2013-04-05 19:41:00,
2013-04-05 13:56:00,65.3,46.0,30.09,SE,135,6.0,17.0,50,0.00,,,0.00,weatherlink.com 1.10,2013-04-05 19:56:00,
2013-04-05 14:26:00,66.5,47.0,30.07,SE,127,13.0,15.0,49,0.00,,,0.00,weatherlink.com 1.10,2013-04-05 20:26:00,
2013-04-05 14:56:00,67.0,46.0,30.04,SE,139,13.0,20.0,48,0.00,,,0.00,weatherlink.com 1.10,2013-04-05 20:56:00,
2013-04-05 15:11:00,68.0,46.0,30.02,SSE,149,10.0,17.0,46,0.00,,,0.00,weatherlink.com 1.10,2013-04-05 21:11:00,
2013-04-05 15:26:00,67.9,46.0,30.01,South,181,7.0,17.0,46,0.00,,,0.00,weatherlink.com 1.10,2013-04-05 21:26:00,
2013-04-05 15:41:00,68.3,46.0,30.00,SSE,147,6.0,18.0,45,0.00,,,0.00,weatherlink.com 1.10,2013-04-05 21:41:00,
2013-04-05 15:56:00,68.8,46.0,29.99,SSE,154,8.0,15.0,44,0.00,,,0.00,weatherlink.com 1.10,2013-04-05 21:56:00,
2013-04-05 16:11:00,69.2,46.0,29.98,SE,135,11.0,18.0,43,0.00,,,0.00,weatherlink.com 1.10,2013-04-05 22:11:00,
2013-04-05 16:26:00,69.8,46.0,29.97,SSE,165,10.0,20.0,42,0.00,,,0.00,weatherlink.com 1.10,2013-04-05 22:26:00,
2013-04-05 16:41:00,70.1,46.0,29.96,SSE,147,6.0,26.0,43,0.00,,,0.00,weatherlink.com 1.10,2013-04-05 22:41:00,
2013-04-05 16:56:00,70.2,45.0,29.96,SSE,167,14.0,18.0,40,0.00,,,0.00,weatherlink.com 1.10,2013-04-05 22:56:00,
2013-04-05 17:11:00,69.4,44.0,29.96,SSE,162,9.0,20.0,40,0.00,,,0.00,weatherlink.com 1.10,2013-04-05 23:11:00,
2013-04-05 17:26:00,68.9,44.0,29.96,SE,139,7.0,15.0,41,0.00,,,0.00,weatherlink.com 1.10,2013-04-05 23:26:00,
2013-04-05 17:41:00,68.5,45.0,29.96,SE,142,5.0,14.0,43,0.00,,,0.00,weatherlink.com 1.10,2013-04-05 23:41:00,
2013-04-05 17:56:00,68.0,45.0,29.95,SSE,152,9.0,16.0,44,0.00,,,0.00,weatherlink.com 1.10,2013-04-05 23:56:00,
2013-04-05 18:11:00,67.5,46.0,29.95,SSE,150,7.0,16.0,46,0.00,,,0.00,weatherlink.com 1.10,2013-04-06 00:11:00,
2013-04-05 18:26:00,66.7,46.0,29.94,SE,140,7.0,14.0,47,0.00,,,0.00,weatherlink.com 1.10,2013-04-06 00:26:00,
2013-04-05 18:41:00,65.8,46.0,29.94,SE,137,9.0,15.0,49,0.00,,,0.00,weatherlink.com 1.10,2013-04-06 00:41:00,
2013-04-05 18:57:00,65.1,46.0,29.94,SE,141,10.0,17.0,50,0.00,,,0.00,weatherlink.com 1.10,2013-04-06 00:57:00,
2013-04-05 19:12:00,64.2,46.0,29.93,SSE,149,9.0,14.0,52,0.00,,,0.00,weatherlink.com 1.10,2013-04-06 01:12:00,
2013-04-05 19:27:00,63.1,46.0,29.93,SSE,160,7.0,13.0,54,0.00,,,0.00,weatherlink.com 1.10,2013-04-06 01:27:00,
2013-04-05 19:41:00,62.2,46.0,29.92,SE,135,10.0,14.0,56,0.00,,,0.00,weatherlink.com 1.10,2013-04-06 01:41:00,
2013-04-05 19:56:00,61.6,46.0,29.92,SE,141,7.0,15.0,56,0.00,,,0.00,weatherlink.com 1.10,2013-04-06 01:56:00,
2013-04-05 20:11:00,60.4,46.0,29.92,SSE,162,5.0,14.0,60,0.00,,,0.00,weatherlink.com 1.10,2013-04-06 02:11:00,
2013-04-05 20:26:00,60.5,47.0,29.92,SE,136,10.0,16.0,61,0.00,,,0.00,weatherlink.com 1.10,2013-04-06 02:26:00,
2013-04-05 20:57:00,60.4,47.0,29.92,SE,142,11.0,16.0,61,0.00,,,0.00,weatherlink.com 1.10,2013-04-06 02:57:00,
2013-04-05 21:12:00,60.4,47.0,29.91,SE,129,10.0,17.0,61,0.00,,,0.00,weatherlink.com 1.10,2013-04-06 03:12:00,
2013-04-05 21:27:00,61.0,46.0,29.90,SE,135,14.0,17.0,59,0.00,,,0.00,weatherlink.com 1.10,2013-04-06 03:27:00,
2013-04-05 21:42:00,61.0,47.0,29.90,SSE,161,8.0,21.0,60,0.00,,,0.00,weatherlink.com 1.10,2013-04-06 03:42:00,
2013-04-05 21:57:00,60.6,46.0,29.90,SE,129,11.0,17.0,60,0.00,,,0.00,weatherlink.com 1.10,2013-04-06 03:57:00,
2013-04-05 22:12:00,60.1,46.0,29.89,SE,137,8.0,18.0,61,0.00,,,0.00,weatherlink.com 1.10,2013-04-06 04:12:00,
2013-04-05 22:27:00,59.7,47.0,29.88,SSE,159,7.0,19.0,63,0.00,,,0.00,weatherlink.com 1.10,2013-04-06 04:27:00,
2013-04-05 22:42:00,60.0,47.0,29.88,SSE,152,6.0,17.0,62,0.00,,,0.00,weatherlink.com 1.10,2013-04-06 04:42:00,
2013-04-05 22:57:00,59.7,47.0,29.88,SSE,155,5.0,15.0,63,0.00,,,0.00,weatherlink.com 1.10,2013-04-06 04:57:00,
2013-04-05 23:12:00,59.2,47.0,29.88,SSE,152,12.0,13.0,64,0.00,,,0.00,weatherlink.com 1.10,2013-04-06 05:12:00,
2013-04-05 23:27:00,58.9,47.0,29.87,SSE,149,8.0,14.0,65,0.00,,,0.00,weatherlink.com 1.10,2013-04-06 05:27:00,
2013-04-05 23:42:00,58.5,47.0,29.86,SSE,155,8.0,13.0,66,0.00,,,0.00,weatherlink.com 1.10,2013-04-06 05:42:00,
2013-04-05 23:57:00,58.3,47.0,29.86,SE,146,4.0,12.0,67,0.00,,,0.00,weatherlink.com 1.10,2013-04-06 05:57:00,